Location: Newark
(41.6500°N, 71.4833°W)
Time: 08:05:46
(UTC+00:00)

A-11 Canister half - All Passes

Search period start: 19 January 2020 00:00
Search period end: 29 January 2020 00:00
Orbit: 1525 x 1684 km, 47.3° (Epoch: 19 January)

Date Brightness Start Highest point End Pass type
(mag) Time Alt. Az. Time Alt. Az. Time Alt. Az.
19 Jan - 00:42:51 10° WSW 00:52:19 87° NNW 01:02:08 10° ENE visible
19 Jan - 02:48:36 10° W 02:58:07 63° N 03:07:59 10° E visible
19 Jan - 04:54:13 10° WNW 05:04:02 83° NNE 05:14:10 10° ESE night (unlit)
19 Jan - 06:59:35 10° WNW 07:08:46 45° SW 07:18:08 10° SSE visible
19 Jan - 09:10:58 10° WSW 09:11:58 10° WSW 09:12:59 10° SW visible
19 Jan - 22:18:07 10° SSW 22:26:22 37° SE 22:34:47 10° ENE visible
20 Jan - 00:21:13 10° WSW 00:30:40 89° NNW 00:40:28 10° ENE visible
20 Jan - 02:26:55 10° W 02:36:25 63° N 02:46:15 10° E visible
20 Jan - 04:32:34 10° WNW 04:42:22 81° NNE 04:52:28 10° ESE night (unlit)
20 Jan - 06:37:54 10° WNW 06:47:09 47° SW 06:56:35 10° SSE night (unlit)
20 Jan - 08:47:45 10° WSW 08:50:25 11° WSW 08:53:07 10° SW visible
20 Jan - 21:56:42 10° SSW 22:04:48 35° SE 22:13:04 10° ENE visible
20 Jan - 23:59:36 10° WSW 00:09:02 88° SSE 00:18:46 10° ENE visible
21 Jan - 02:05:15 10° W 02:14:43 63° N 02:24:31 10° ENE visible
21 Jan - 04:10:56 10° WNW 04:20:41 79° NNE 04:30:46 10° ESE visible
21 Jan - 06:16:14 10° WNW 06:25:32 49° SW 06:35:04 10° SSE night (unlit)
21 Jan - 08:25:17 10° W 08:28:52 12° WSW 08:32:29 10° SW night (unlit)
21 Jan - 21:35:18 10° S 21:43:13 33° SE 21:51:19 10° ENE daylight
21 Jan - 23:37:59 10° WSW 23:47:23 86° SSE 23:57:06 10° ENE visible
22 Jan - 01:43:36 10° W 01:53:01 63° N 02:02:49 10° ENE visible
22 Jan - 03:49:17 10° WNW 03:59:00 78° NNE 04:09:03 10° ESE visible
22 Jan - 05:54:33 10° WNW 06:03:54 51° SW 06:13:29 10° SSE night (unlit)
22 Jan - 08:03:03 10° W 08:07:19 14° WSW 08:11:38 10° SSW night (unlit)
22 Jan - 21:13:54 10° S 21:21:40 31° SE 21:29:35 10° ENE daylight
22 Jan - 23:16:22 10° WSW 23:25:45 84° SSE 23:35:26 10° ENE visible
23 Jan - 01:21:55 10° W 01:31:20 64° N 01:41:05 10° ENE visible
23 Jan - 03:27:38 10° WNW 03:37:19 76° NNE 03:47:20 10° ESE visible
23 Jan - 05:32:53 10° WNW 05:42:17 54° SW 05:51:56 10° SSE night (unlit)
23 Jan - 07:40:55 10° W 07:45:45 15° WSW 07:50:39 10° SSW night (unlit)
23 Jan - 20:52:31 10° S 21:00:07 29° SE 21:07:49 10° ENE daylight
23 Jan - 22:54:46 10° SW 23:04:06 81° SSE 23:13:45 10° ENE visible
24 Jan - 01:00:15 10° W 01:09:39 64° N 01:19:22 10° ENE visible
24 Jan - 03:06:00 10° WNW 03:15:39 74° NNE 03:25:37 10° ESE visible
24 Jan - 05:11:14 10° WNW 05:20:40 56° SW 05:30:21 10° SE night (unlit)
24 Jan - 07:18:53 10° W 07:24:12 16° WSW 07:29:35 10° SSW night (unlit)
24 Jan - 20:31:10 10° S 20:38:33 28° SE 20:46:03 10° ENE daylight
24 Jan - 22:33:11 10° SW 22:42:29 79° SSE 22:52:05 10° ENE visible
25 Jan - 00:38:35 10° W 00:47:57 65° N 00:57:40 10° ENE visible
25 Jan - 02:44:21 10° WNW 02:53:58 73° NNE 03:03:54 10° ESE visible
25 Jan - 04:49:35 10° WNW 04:59:02 58° SW 05:08:46 10° SE night (unlit)
25 Jan - 06:56:55 10° W 07:02:38 17° SW 07:08:26 10° SSW night (unlit)
25 Jan - 20:09:49 10° S 20:17:01 26° SE 20:24:16 10° ENE daylight
25 Jan - 22:11:35 10° SW 22:20:52 76° SSE 22:30:24 10° ENE visible
26 Jan - 00:16:54 10° W 00:26:16 65° N 00:35:57 10° ENE visible
26 Jan - 02:22:42 10° WNW 02:32:17 72° NNE 02:42:11 10° E visible
26 Jan - 04:27:56 10° WNW 04:37:24 61° SW 04:47:10 10° SE visible
26 Jan - 06:34:59 10° W 06:41:04 18° SW 06:47:15 10° SSW night (unlit)
26 Jan - 19:48:30 10° S 19:55:27 24° SE 20:02:29 10° E daylight
26 Jan - 21:50:00 10° SW 21:59:15 73° SSE 22:08:44 10° ENE daylight
26 Jan - 23:55:14 10° W 00:04:35 66° N 00:14:14 10° ENE visible
27 Jan - 02:01:04 10° WNW 02:10:35 70° NNE 02:20:28 10° E visible
27 Jan - 04:06:17 10° WNW 04:15:47 63° SW 04:25:34 10° SE visible
27 Jan - 06:13:06 10° W 06:19:30 20° SW 06:26:01 10° SSW night (unlit)
27 Jan - 19:27:12 10° S 19:33:54 23° SE 19:40:40 10° E daylight
27 Jan - 21:28:25 10° SW 21:37:38 71° SE 21:47:04 10° ENE daylight
27 Jan - 23:33:34 10° W 23:42:54 67° N 23:52:33 10° ENE visible
28 Jan - 01:39:24 10° WNW 01:48:55 69° NNE 01:58:44 10° E visible
28 Jan - 03:44:38 10° WNW 03:54:09 66° SW 04:03:57 10° SE visible
28 Jan - 05:51:15 10° W 05:57:55 21° SW 06:04:45 10° S night (unlit)
28 Jan - 19:05:55 10° S 19:12:22 21° SE 19:18:51 10° E daylight
28 Jan - 21:06:51 10° SW 21:16:02 68° SE 21:25:24 10° ENE daylight
28 Jan - 23:11:54 10° W 23:21:14 68° NNW 23:30:51 10° ENE visible
